Weather History for Defiance, OH

Change the Weather History Date:

Thursday, January 17, 2013

  Actual Average Record
Temperature  
Mean Temperature 31 °F -  
Max Temperature 41 °F 31 °F 55 °F (1952)
Min Temperature 21 °F 12 °F -22 °F (1982)
Degree Days  
Heating Degree Days 34    
Moisture  
Dew Point 22 °F    
Average Humidity 67    
Maximum Humidity 88    
Minimum Humidity 47    
Precipitation  
Precipitation 0.00 in - - ()
Sea Level Pressure  
Sea Level Pressure 30.21 in    
Wind  
Wind Speed 6 mph (WNW)    
Max Wind Speed 17 mph    
Max Gust Speed 24 mph    
Visibility 9 miles    
Events      
Averages and records for this station are not official NWS values.
T = Trace of Precipitation, MM = Missing Value Source: NWS Daily Summary

Daily Weather History Graph

Daily Weather History Graph

Search for Another Location

Airport:

Trip Planner

Search our weather history database for the weather conditions in past years. The results will help you decide how hot, cold, wet, or windy it might be!

Date:

Astronomy

Jan. 17, 2013 Rise Set
Actual Time 8:00 AM EST 5:35 PM EST
Civil Twilight 7:29 AM EST 6:06 PM EST
Nautical Twilight 6:56 AM EST 6:40 PM EST
Astronomical Twilight 6:23 AM EST 7:13 PM EST
Moon 11:01 AM EST (1/17) No Moon Set
Length of Visible Light 10h 36m
Length of Day
9h 35m
Waxing Crescent, 37% of the Moon is Illuminated
Jan 17
Waxing Crescent
Jan 18
First Quarter
Jan 26
Full
Feb 3
Last Quarter
Feb 10
New

Hourly Weather History & Observations

Time (EST) Temp. Windchill Dew Point Humidity Pressure Visibility Wind Dir Wind Speed Gust Speed Precip Events Conditions
12:53 AM 34.0 °F 28.0 °F 26.1 °F 73% 30.06 in 10.0 mi WSW 6.9 mph - N/A   Overcast
1:53 AM 34.0 °F 29.8 °F 26.1 °F 73% 30.07 in 10.0 mi WSW 4.6 mph - N/A   Overcast
2:53 AM 34.0 °F 28.8 °F 26.1 °F 73% 30.09 in 10.0 mi WSW 5.8 mph - N/A   Overcast
3:53 AM 34.0 °F 31.0 °F 27.0 °F 75% 30.11 in 10.0 mi West 3.5 mph - N/A   Overcast
4:30 AM 33.8 °F 29.6 °F 26.6 °F 75% 30.08 in 10.0 mi Variable 4.6 mph - N/A   Overcast
4:53 AM 34.0 °F 31.0 °F 27.0 °F 75% 30.11 in 10.0 mi West 3.5 mph - N/A   Overcast
5:53 AM 30.9 °F - 26.1 °F 82% 30.13 in 10.0 mi Calm Calm - N/A   Scattered Clouds
7:53 AM 30.0 °F - 25.0 °F 82% 30.17 in 7.0 mi Calm Calm - N/A   Clear
8:53 AM 28.0 °F 24.2 °F 24.1 °F 85% 30.19 in 4.0 mi WSW 3.5 mph - N/A   Clear
9:53 AM 30.0 °F 26.5 °F 27.0 °F 88% 30.22 in 5.0 mi South 3.5 mph - N/A   Clear
10:53 AM 36.0 °F 33.3 °F 28.9 °F 76% 30.23 in 9.0 mi Variable 3.5 mph - N/A   Clear
11:14 AM 35.6 °F 32.8 °F 26.6 °F 70% 30.21 in 10.0 mi WNW 3.5 mph - N/A   Mostly Cloudy
11:53 AM 37.9 °F 34.4 °F 27.0 °F 65% 30.22 in 10.0 mi North 4.6 mph - N/A   Overcast
12:19 PM 39.2 °F 35.9 °F 24.8 °F 56% 30.19 in 10.0 mi NW 4.6 mph - N/A   Scattered Clouds
12:53 PM 39.9 °F 35.8 °F 24.1 °F 53% 30.19 in 10.0 mi Variable 5.8 mph - N/A   Partly Cloudy
1:53 PM 41.0 °F 35.8 °F 23.0 °F 49% 30.17 in 10.0 mi WNW 8.1 mph - N/A   Clear
2:53 PM 39.9 °F 35.1 °F 21.0 °F 47% 30.16 in 10.0 mi Variable 6.9 mph - N/A   Clear
3:53 PM 37.9 °F 29.2 °F 19.9 °F 48% 30.18 in 10.0 mi NW 15.0 mph 24.2 mph N/A   Clear
4:53 PM 34.0 °F 25.0 °F 19.0 °F 54% 30.21 in 10.0 mi WNW 12.7 mph 19.6 mph N/A   Clear
5:53 PM 30.0 °F 19.1 °F 17.1 °F 59% 30.25 in 10.0 mi NW 15.0 mph 23.0 mph N/A   Clear
6:53 PM 27.0 °F 14.3 °F 15.1 °F 61% 30.30 in 10.0 mi NW 17.3 mph 24.2 mph N/A   Clear
7:53 PM 25.0 °F 12.6 °F 14.0 °F 63% 30.35 in 10.0 mi NW 15.0 mph 23.0 mph N/A   Clear
8:53 PM 23.0 °F 13.9 °F 12.0 °F 63% 30.36 in 10.0 mi NW 8.1 mph - N/A   Partly Cloudy
9:53 PM 21.9 °F 13.4 °F 10.0 °F 60% 30.38 in 10.0 mi NW 6.9 mph - N/A   Clear
10:53 PM 21.0 °F 16.2 °F 12.0 °F 68% 30.37 in 10.0 mi Variable 3.5 mph - N/A   Clear
11:53 PM 21.9 °F 15.7 °F 14.0 °F 72% 30.38 in 10.0 mi WSW 4.6 mph - N/A   Overcast